Regional Weather Roundup
Issued by NWS

Home | Current Version | Previous Version | Text Only | Print | Product List | Glossary On
Versions: 1 2 3 4 5 6 7 8 9 10 11 12 13 14 15 16 17 18 19 20 21 22 23 24 25 26 27
000
ASUS45 KSLC 281410
RWRUT

UTAH REGIONAL WEATHER ROUNDUP
NATIONAL WEATHER SERVICE SALT LAKE CITY UT
800 AM MDT SUN AUG 28 2016

UTZ001>011-023>025-281500-

NORTHERN UTAH

CITY           SKY/WX    TMP DP  RH WIND       PRES   REMARKS
BRIGHAM CITY     N/A     59  39  46 CALM      30.16R
HILL AFB       SUNNY     60  30  31 E16       30.16R
LOGAN          SUNNY     49  39  68 CALM      30.16R
OGDEN          SUNNY     60  30  32 S9        30.14R
PROVO AIRPORT  SUNNY     55  39  54 CALM      30.20R
SALT LAKE CITY SUNNY     69  45  41 S13       30.13R
VERNAL         SUNNY     57  45  64 CALM      30.24R
WENDOVER       MOSUNNY   57  32  38 CALM      30.13R
HEBER CITY     SUNNY     46  37  71 CALM      30.25R
WEST JORDAN    SUNNY     64  47  54 S7        30.17R

$$

UTZ012>022-026-027-281500-

SOUTHERN/CENTRAL UTAH

CITY           SKY/WX    TMP DP  RH WIND       PRES   REMARKS
BLANDING       MOSUNNY   56  49  79 CALM      30.36R
BRYCE CANYON   MOSUNNY   44  41  89 W7        30.39R
CEDAR CITY     SUNNY     51  46  83 CALM      30.26R
MILFORD        SUNNY     55  48  77 SW12      30.21R
MOAB/CYNLANDS  CLOUDY    65  48  54 E3        30.20R
PRICE          SUNNY     59  41  51 CALM      30.28R
ST GEORGE      SUNNY     63  54  72 SE3       30.17R

$$

REGIONAL REPORTS     COLORADO/ARIZONA

CITY           SKY/WX    TMP DP  RH WIND       PRES   REMARKS
CRAIG, CO      SUNNY     47  39  74 W3        30.31R
GRAND JUNCTION CLOUDY    61  48  62 E3        30.24R
RIFLE          PTSUNNY   55  51  86 CALM      30.29R
MONTROSE       CLOUDY    59  46  62 SE5       30.31R
CORTEZ         PTSUNNY   55  49  80 CALM      30.30R
PAGE, AZ       SUNNY     62  53  72 W5        30.21R
GRAND CANYON   SUNNY     50  47  89 CALM      30.32R
KINGMAN        SUNNY     64  54  69 CALM      30.13R
FLAGSTAFF      CLOUDY    48  47  96 CALM      30.33R

$$

REGIONAL REPORTS    NEVADA/IDAHO/WYOMING

CITY           SKY/WX    TMP DP  RH WIND       PRES   REMARKS
LAS VEGAS, NV  CLEAR     77  51  40 N5        30.04R
ELY            CLEAR     45  38  76 S8        30.29R
ELKO           CLEAR     50  22  33 NE5       30.21R
POCATELLO, ID  SUNNY     56  35  45 CALM      30.14R
BURLEY         SUNNY     51  45  79 S3        30.10R
EVANSTON, WY   CLOUDY    50  26  39 S8        30.31R
ROCK SPRINGS   SUNNY     54  26  34 S3        30.29R

$$




USA.gov is the U.S. government's official web portal to all federal, state and local government web resources and services.